TimeCDT,TemperatureF,Dew PointF,Humidity,Sea Level PressureIn,VisibilityMPH,Wind Direction,Wind SpeedMPH,Gust SpeedMPH,PrecipitationIn,Events,Conditions,WindDirDegrees,DateUTC
12:11 AM,33.8,33.8,100,30.39,10.0,Calm,Calm,-,N/A,,Clear,0,2013-10-14 05:11:00
12:31 AM,35.6,33.8,93,30.39,10.0,Calm,Calm,-,N/A,,Clear,0,2013-10-14 05:31:00
12:51 AM,35.6,35.6,100,30.40,10.0,Calm,Calm,-,N/A,,Clear,0,2013-10-14 05:51:00
1:11 AM,35.6,33.8,93,30.40,10.0,Calm,Calm,-,N/A,,Clear,0,2013-10-14 06:11:00
1:31 AM,35.6,33.8,93,30.41,10.0,Calm,Calm,-,N/A,,Clear,0,2013-10-14 06:31:00
1:51 AM,33.8,33.8,100,30.40,10.0,Calm,Calm,-,N/A,,Clear,0,2013-10-14 06:51:00
2:11 AM,33.8,33.8,100,30.40,10.0,Calm,Calm,-,N/A,,Clear,0,2013-10-14 07:11:00
2:31 AM,33.8,32.0,93,30.40,10.0,Calm,Calm,-,N/A,,Clear,0,2013-10-14 07:31:00
2:51 AM,32.0,32.0,100,30.40,7.0,Calm,Calm,-,N/A,,Clear,0,2013-10-14 07:51:00
3:11 AM,33.8,33.8,100,30.40,10.0,Calm,Calm,-,N/A,,Clear,0,2013-10-14 08:11:00
3:31 AM,32.0,32.0,100,30.39,10.0,Calm,Calm,-,N/A,,Clear,0,2013-10-14 08:31:00
3:51 AM,33.8,33.8,100,30.38,10.0,East,3.5,-,N/A,,Clear,100,2013-10-14 08:51:00
4:11 AM,32.0,32.0,100,30.38,10.0,Calm,Calm,-,N/A,,Clear,0,2013-10-14 09:11:00
4:31 AM,33.8,33.8,100,30.38,10.0,Calm,Calm,-,N/A,,Clear,0,2013-10-14 09:31:00
4:50 AM,33.8,33.8,100,30.38,10.0,Calm,Calm,-,N/A,,Clear,0,2013-10-14 09:50:00
5:11 AM,33.8,33.8,100,30.37,10.0,Calm,Calm,-,N/A,,Clear,0,2013-10-14 10:11:00
5:31 AM,33.8,33.8,100,30.36,10.0,Calm,Calm,-,N/A,,Clear,0,2013-10-14 10:31:00
5:51 AM,35.6,33.8,93,30.37,10.0,Calm,Calm,-,N/A,,Clear,0,2013-10-14 10:51:00
6:11 AM,35.6,33.8,93,30.35,7.0,Calm,Calm,-,N/A,,Clear,0,2013-10-14 11:11:00
6:31 AM,35.6,33.8,93,30.34,10.0,East,4.6,-,N/A,,Clear,90,2013-10-14 11:31:00
6:51 AM,35.6,33.8,93,30.34,10.0,Calm,Calm,-,N/A,,Clear,0,2013-10-14 11:51:00
7:11 AM,35.6,35.6,100,30.34,10.0,Calm,Calm,-,N/A,,Clear,0,2013-10-14 12:11:00
7:31 AM,35.6,35.6,100,30.34,10.0,Calm,Calm,-,N/A,,Clear,0,2013-10-14 12:31:00
7:51 AM,37.4,35.6,93,30.34,10.0,Calm,Calm,-,N/A,,Clear,0,2013-10-14 12:51:00
8:11 AM,37.4,37.4,100,30.34,10.0,Calm,Calm,-,N/A,,Clear,0,2013-10-14 13:11:00
8:31 AM,37.4,37.4,100,30.33,10.0,Calm,Calm,-,N/A,,Clear,0,2013-10-14 13:31:00
8:51 AM,39.2,39.2,100,30.34,10.0,Calm,Calm,-,N/A,,Clear,0,2013-10-14 13:51:00
9:11 AM,41.0,39.2,93,30.34,10.0,East,3.5,-,N/A,,Clear,100,2013-10-14 14:11:00
9:31 AM,42.8,39.2,87,30.35,10.0,Calm,Calm,-,N/A,,Clear,0,2013-10-14 14:31:00
9:51 AM,44.6,39.2,81,30.36,10.0,Calm,Calm,-,N/A,,Clear,0,2013-10-14 14:51:00
10:30 AM,46.4,39.2,76,30.34,10.0,East,3.5,-,N/A,,Unknown,100,2013-10-14 15:30:00
10:51 AM,48.2,39.2,71,30.32,10.0,East,4.6,-,N/A,,Clear,100,2013-10-14 15:51:00
11:11 AM,48.2,39.2,71,30.31,10.0,ESE,5.8,-,N/A,,Clear,110,2013-10-14 16:11:00
11:31 AM,50.0,37.4,62,30.30,10.0,ESE,6.9,-,N/A,,Clear,120,2013-10-14 16:31:00
11:51 AM,50.0,37.4,62,30.28,10.0,ESE,8.1,-,N/A,,Clear,120,2013-10-14 16:51:00
12:11 PM,51.8,37.4,58,30.27,10.0,ESE,9.2,-,N/A,,Clear,120,2013-10-14 17:11:00
12:31 PM,51.8,37.4,58,30.25,10.0,ESE,11.5,16.1,N/A,,Clear,110,2013-10-14 17:31:00
12:51 PM,53.6,37.4,54,30.24,10.0,ESE,10.4,16.1,N/A,,Clear,120,2013-10-14 17:51:00
1:11 PM,51.8,39.2,62,30.21,10.0,ESE,10.4,-,N/A,,Clear,120,2013-10-14 18:11:00
1:31 PM,53.6,39.2,58,30.20,10.0,ESE,12.7,-,N/A,,Clear,110,2013-10-14 18:31:00
1:50 PM,53.6,37.4,54,30.18,10.0,ESE,11.5,18.4,N/A,,Clear,110,2013-10-14 18:50:00
2:11 PM,53.6,37.4,54,30.18,10.0,ESE,11.5,20.7,N/A,,Scattered Clouds,120,2013-10-14 19:11:00
2:30 PM,53.6,37.4,54,30.16,10.0,East,11.5,16.1,N/A,,Scattered Clouds,100,2013-10-14 19:30:00
2:51 PM,53.6,37.4,54,30.15,10.0,ESE,12.7,18.4,N/A,,Clear,110,2013-10-14 19:51:00
3:11 PM,51.8,37.4,58,30.13,10.0,ESE,12.7,19.6,N/A,,Scattered Clouds,110,2013-10-14 20:11:00
3:31 PM,51.8,37.4,58,30.13,10.0,ESE,13.8,21.9,N/A,,Mostly Cloudy,110,2013-10-14 20:31:00
3:51 PM,51.8,37.4,58,30.14,10.0,ESE,10.4,17.3,N/A,,Mostly Cloudy,110,2013-10-14 20:51:00
4:11 PM,51.8,39.2,62,30.12,10.0,East,12.7,18.4,N/A,,Scattered Clouds,90,2013-10-14 21:11:00
4:31 PM,51.8,39.2,62,30.11,10.0,East,11.5,19.6,N/A,,Mostly Cloudy,100,2013-10-14 21:31:00
4:51 PM,51.8,37.4,58,30.10,10.0,East,9.2,18.4,N/A,,Scattered Clouds,100,2013-10-14 21:51:00
5:11 PM,51.8,37.4,58,30.10,10.0,East,9.2,17.3,N/A,,Scattered Clouds,100,2013-10-14 22:11:00
5:31 PM,51.8,39.2,62,30.09,10.0,East,10.4,-,N/A,,Mostly Cloudy,100,2013-10-14 22:31:00
5:51 PM,51.8,39.2,62,30.08,10.0,East,12.7,16.1,N/A,Rain,Light Rain,90,2013-10-14 22:51:00
6:11 PM,51.8,39.2,62,30.09,10.0,East,10.4,-,N/A,,Mostly Cloudy,80,2013-10-14 23:11:00
6:31 PM,48.2,42.8,82,30.09,10.0,East,8.1,-,N/A,Rain,Light Rain,80,2013-10-14 23:31:00
6:51 PM,48.2,42.8,82,30.08,10.0,East,6.9,-,0.01,Rain,Light Rain,80,2013-10-14 23:51:00
7:11 PM,46.4,42.8,87,30.06,10.0,East,6.9,-,N/A,,Overcast,80,2013-10-15 00:11:00
7:31 PM,48.2,42.8,82,30.04,10.0,East,10.4,-,N/A,,Overcast,80,2013-10-15 00:31:00
7:51 PM,48.2,42.8,82,30.04,10.0,East,9.2,-,N/A,,Overcast,80,2013-10-15 00:51:00
8:11 PM,48.2,42.8,82,30.02,10.0,ENE,10.4,-,N/A,Rain,Rain,70,2013-10-15 01:11:00
8:31 PM,48.2,42.8,82,29.99,10.0,East,12.7,18.4,N/A,,Light Drizzle,80,2013-10-15 01:31:00
8:50 PM,48.2,44.6,87,29.99,10.0,East,13.8,-,N/A,Rain,Light Rain,90,2013-10-15 01:50:00
9:11 PM,50.0,44.6,82,29.97,10.0,East,12.7,18.4,N/A,,Overcast,90,2013-10-15 02:11:00
9:31 PM,50.0,44.6,82,29.96,10.0,East,13.8,19.6,N/A,Rain,Light Rain,100,2013-10-15 02:31:00
9:51 PM,48.2,44.6,87,29.96,10.0,East,12.7,19.6,0.01,Rain,Light Rain,100,2013-10-15 02:51:00
10:11 PM,48.2,44.6,87,29.96,10.0,East,11.5,-,N/A,Rain,Light Rain,100,2013-10-15 03:11:00
10:31 PM,50.0,44.6,82,29.98,10.0,SE,6.9,17.3,N/A,Rain,Light Rain,130,2013-10-15 03:31:00
10:51 PM,48.2,46.4,93,29.98,5.0,East,9.2,-,0.09,Rain,Heavy Rain,90,2013-10-15 03:51:00
11:11 PM,48.2,46.4,93,29.98,7.0,East,9.2,-,0.05,Rain,Rain,100,2013-10-15 04:11:00
11:31 PM,46.4,46.4,100,29.96,7.0,East,10.4,-,0.11,Rain,Rain,90,2013-10-15 04:31:00
11:51 PM,46.4,46.4,100,29.95,5.0,ENE,8.1,-,0.17,Rain,Rain,70,2013-10-15 04:51:00